This is the latest recevied weather packets stored in our database for station/object OK2JF-6. If no packets are shown the sender has not sent any weather packets the latest 10 day(s).
| Time | Temp. | Humidity | Pressure | Rain* | Wind** | Luminosity | Snow |
|---|---|---|---|---|---|---|---|
| 1777643703 | 17.78° C | 39% | 1098.3 hPa | 0 mm | - | 280 W/m² | - |
| 1777643657 | 17.78° C | 39% | 1098.3 hPa | 0 mm | - | 300 W/m² | - |
| 1777643643 | 17.78° C | 39% | 1098.3 hPa | 0 mm | - | 301 W/m² | - |
| 1777643539 | 17.78° C | 40% | 1098.2 hPa | 0 mm | - | 305 W/m² | - |
| 1777643463 | 17.78° C | 39% | 1098.3 hPa | 0 mm | - | 307 W/m² | - |
| 1777642743 | 17.78° C | 39% | 1098.3 hPa | 0 mm | - | 322 W/m² | - |
| 1777642503 | 17.78° C | 39% | 1098.4 hPa | 0 mm | - | 332 W/m² | - |
| 1777642263 | 17.78° C | 38% | 1098.5 hPa | 0 mm | - | 340 W/m² | - |
| 1777642083 | 17.78° C | 39% | 1098.2 hPa | 0 mm | - | 347 W/m² | - |
| 1777641663 | 17.22° C | 39% | 1098.3 hPa | 0 mm | - | 353 W/m² | - |
| 1777641423 | 17.78° C | 38% | 1098.6 hPa | 0 mm | - | 360 W/m² | - |
| 1777641243 | 17.78° C | 39% | 1098.6 hPa | 0 mm | - | 364 W/m² | - |
| 1777641198 | 17.78° C | 39% | 1098.4 hPa | 0 mm | - | 367 W/m² | - |
| 1777640884 | 17.78° C | 39% | 1098.7 hPa | 0 mm | - | 375 W/m² | - |
| 1777640643 | 17.78° C | 38% | 1098.8 hPa | 0 mm | - | 310 W/m² | - |
| 1777640343 | 17.22° C | 39% | 1098.6 hPa | 0 mm | - | 352 W/m² | - |
| 1777639758 | 17.78° C | 39% | 1098.6 hPa | 0 mm | - | 244 W/m² | - |
| 1777639443 | 17.22° C | 39% | 1098.7 hPa | 0 mm | - | 387 W/m² | - |
| 1777639383 | 17.22° C | 38% | 1098.5 hPa | 0 mm | - | 400 W/m² | - |
| 1777639323 | 17.22° C | 39% | 1098.6 hPa | 0 mm | - | 305 W/m² | - |
| 1777639083 | 17.22° C | 37% | 1098.8 hPa | 0 mm | - | 421 W/m² | - |
| 1777638783 | 17.78° C | 37% | 1098.7 hPa | 0 mm | - | 424 W/m² | - |
| 1777638123 | 17.22° C | 37% | 1099.2 hPa | 0 mm | - | 426 W/m² | - |
| 1777637898 | 17.22° C | 36% | 1099.1 hPa | 0 mm | - | 441 W/m² | - |
| 1777637343 | 17.22° C | 36% | 1099 hPa | 0 mm | - | 40 W/m² | - |
* Rain latest hour (hover to see other rain measurements)
** Current wind speed in m/s (hover to see current wind gust speed)